User: anonymous   Login
Location: 相模原市立博物館
(35.5593°N, 139.3931°E)
Time: 05:14:23
(UTC+09:00)
Language:

POLYITAN 1 - Orbit

View from above orbital plane
View from above orbital plane
View from above satellite
View from above satellite

Ground track
Ground track

The orbit data is extracted from the following two-line orbital elements,

1 40042U 14033AJ  22019.45995464  .00001810  00000-0  19499-3 0  9996
2 40042  97.9602 316.9168 0014468 173.6577 186.4825 14.89659796411462
Epoch (UTC): 19 January 2022 11:02:20
Eccentricity: 0.0014468
inclination: 97.9602°
perigee height: 589 km
apogee height: 609 km
right ascension of ascending node: 316.9168°
argument of perigee: 173.6577°
revolutions per day: 14.89659796
mean anomaly at epoch: 186.4825°
orbit number at epoch: 41146

The dashed part of the orbit path shows where the satellite is in the earth's shadow,  

DLR